Dickinson, ND

3:55 PM MST on November 24, 2017 (GMT -0700)
Dickinson Municipal

Weather History for KDIK - March, 2013

Change the Weather History Date:

Monday, March 18, 2013

  Actual Average Record
Temperature  
Mean Temperature 13 °F 31 °F  
Max Temperature 23 °F 42 °F 79 °F (2012)
Min Temperature 3 °F 20 °F -17 °F (1923)
Degree Days  
Heating Degree Days 52 34  
Month to date heating degree days 696 677  
Since 1 July heating degree days 6674 6971  
Cooling Degree Days 0 0  
Month to date cooling degree days 0 0  
Year to date cooling degree days 0 0  
Moisture  
Dew Point 2 °F    
Average Humidity 71    
Maximum Humidity 84    
Minimum Humidity 57    
Precipitation  
Precipitation T in 0.03 in 0.40 in (1914)
Month to date precipitation 0.30 0.34  
Year to date precipitation 0.38 0.97  
Sea Level Pressure  
Sea Level Pressure 29.93 in    
Wind  
Wind Speed 15 mph (WNW)    
Max Wind Speed 32 mph    
Max Gust Speed 41 mph    
Visibility 10 miles    
Events      
T = Trace of Precipitation, MM = Missing Value Source: NWS Daily Summary

Daily Weather History Graph

Daily Weather History Graph

Search for Another Location

Airport or City:

Trip Planner

Search our weather history database for the weather conditions in past years. The results will help you decide how hot, cold, wet, or windy it might be!

Date:

Astronomy

Mar. 18, 2013 Rise Set
Actual Time 6:57 AM MDT 7:01 PM MDT
Civil Twilight 6:27 AM MDT 7:31 PM MDT
Nautical Twilight 5:51 AM MDT 8:07 PM MDT
Astronomical Twilight 5:15 AM MDT 8:43 PM MDT
Moon 10:37 AM MDT (3/18) 1:23 AM MDT (3/18)
Length of Visible Light 13h 04m
Length of Day
12h 03m
Waxing Crescent, 41% of the Moon is Illuminated
Mar 18
Waxing Crescent
Mar 19
First Quarter
Mar 27
Full
Apr 2
Last Quarter
Apr 10
New

Hourly Weather History & Observations

Time (MDT) Temp. Windchill Dew Point Humidity Pressure Visibility Wind Dir Wind Speed Gust Speed Precip Events Conditions
12:56 AM 5.0 °F -17.1 °F -0.9 °F 76% 29.84 in 5.0 mi WNW 24.2 mph 32.2 mph 0.00 in   Overcast
1:04 AM 3.2 °F -20.3 °F -0.4 °F 85% 29.71 in 5.0 mi WNW 26.5 mph 35.7 mph 0.00 in   Overcast
1:17 AM 3.2 °F -19.9 °F -2.2 °F 78% 29.71 in 10.0 mi WNW 25.3 mph 36.8 mph 0.00 in   Mostly Cloudy
1:29 AM 3.2 °F -21.5 °F -2.2 °F 78% 29.71 in 10.0 mi WNW 29.9 mph 39.1 mph 0.00 in   Scattered Clouds
1:56 AM 3.0 °F -22.4 °F -2.9 °F 76% 29.86 in 10.0 mi WNW 32.2 mph 39.1 mph 0.00 in   Partly Cloudy
2:09 AM 3.2 °F -21.5 °F -2.2 °F 78% 29.73 in 9.0 mi WNW 29.9 mph 39.1 mph 0.00 in   Mostly Cloudy
2:56 AM 3.0 °F -21.4 °F -2.9 °F 76% 29.88 in 9.0 mi WNW 28.8 mph 38.0 mph 0.00 in   Overcast
3:34 AM 3.2 °F -21.5 °F -4.0 °F 72% 29.74 in 10.0 mi NW 29.9 mph 41.4 mph 0.00 in   Mostly Cloudy
3:56 AM 3.0 °F -21.7 °F -4.0 °F 73% 29.88 in 10.0 mi WNW 29.9 mph 38.0 mph 0.00 in   Scattered Clouds
4:11 AM 3.2 °F -19.9 °F -4.0 °F 72% 29.76 in 10.0 mi WNW 25.3 mph 35.7 mph N/A   Mostly Cloudy
4:56 AM 3.0 °F -21.0 °F -4.0 °F 73% 29.92 in 10.0 mi WNW 27.6 mph 38.0 mph N/A   Scattered Clouds
5:30 AM 3.2 °F -22.2 °F -2.2 °F 78% 29.81 in 10.0 mi WNW 32.2 mph 39.1 mph N/A   Mostly Cloudy
5:56 AM 3.0 °F -20.2 °F -4.0 °F 73% 29.95 in 10.0 mi WNW 25.3 mph 35.7 mph N/A   Scattered Clouds
6:56 AM 3.0 °F -18.3 °F -2.9 °F 76% 29.98 in 10.0 mi WNW 20.7 mph - N/A   Partly Cloudy
7:10 AM 3.2 °F -18.6 °F -2.2 °F 78% 29.84 in 10.0 mi WNW 21.9 mph - N/A   Mostly Cloudy
7:56 AM 3.9 °F -18.1 °F -2.0 °F 76% 30.00 in 10.0 mi WNW 23.0 mph 31.1 mph N/A   Mostly Cloudy
8:03 AM 3.2 °F -19.0 °F -2.2 °F 78% 29.85 in 10.0 mi WNW 23.0 mph - N/A   Scattered Clouds
8:56 AM 6.1 °F -13.8 °F -0.9 °F 73% 30.03 in 10.0 mi NW 19.6 mph 27.6 mph N/A   Clear
9:56 AM 9.0 °F -9.0 °F -0.0 °F 67% 30.05 in 10.0 mi NW 17.3 mph 26.5 mph N/A   Clear
10:56 AM 10.9 °F -8.3 °F 1.9 °F 67% 30.05 in 10.0 mi WNW 21.9 mph 29.9 mph N/A   Clear
11:56 AM 14.0 °F -3.0 °F 3.0 °F 62% 30.05 in 10.0 mi WNW 18.4 mph 25.3 mph N/A   Clear
12:56 PM 17.1 °F 3.0 °F 6.1 °F 62% 30.05 in 10.0 mi WNW 13.8 mph 21.9 mph N/A   Clear
1:56 PM 18.0 °F 3.1 °F 7.0 °F 62% 30.04 in 10.0 mi WNW 16.1 mph 20.7 mph N/A   Clear
2:56 PM 21.0 °F 7.1 °F 9.0 °F 60% 30.02 in 10.0 mi WNW 16.1 mph 20.7 mph N/A   Clear
3:56 PM 21.9 °F 11.0 °F 9.0 °F 58% 30.01 in 10.0 mi WNW 10.4 mph - N/A   Clear
4:56 PM 21.9 °F 14.5 °F 9.0 °F 58% 30.00 in 10.0 mi WNW 5.8 mph - N/A   Clear
5:56 PM 21.9 °F 15.7 °F 8.1 °F 55% 30.01 in 10.0 mi WNW 4.6 mph - N/A   Clear
6:56 PM 18.0 °F - 10.0 °F 71% 30.02 in 10.0 mi Calm Calm - N/A   Clear
7:56 PM 12.9 °F 2.6 °F 8.1 °F 81% 30.04 in 10.0 mi SW 6.9 mph - N/A   Scattered Clouds
8:56 PM 12.9 °F - 8.1 °F 81% 30.04 in 10.0 mi Calm Calm - N/A   Overcast
9:56 PM 14.0 °F 6.5 °F 8.1 °F 77% 30.02 in 10.0 mi South 4.6 mph - N/A   Overcast
10:56 PM 16.0 °F 7.4 °F 10.0 °F 77% 30.02 in 10.0 mi South 5.8 mph - N/A   Overcast